Погода в Арнеме

Нидерланды     51°58′49″N   5°56′02″E
темп.,
°C
ветер,
м/с
пор.,
м/с
влажн.,
%
обл.,
%
осадки,
мм/ч
давл.,
гПа
погр.,
м
6 марта, сб
сб601:00−1ссв22843 0.0 103433
04:00−1св12890 0.0 103422
07:00−1св12880 0.0 103521
10:00+4св236460 0.0 1035505
13:00+6всв335372 0.0 10341137
16:00+6св225469 0.0 10321245
19:00+2св237164 0.0 103223
22:000ссв23840 0.0 103148
7 марта, вс
вс701:00−1с22870 0.0 103025
04:00−1св11880 0.0 102821
07:00−1зсз12860 0.0 102822
10:00+4сз24650 0.0 1026598
13:00+6сз34555 0.0 10261070
16:00+6ссз446014 0.0 10241119
19:00+2ссз237821 0.0 102458
22:00+2сз358862 0.0 1024118
8 марта, пн
пн801:000зсз239343 0.0 102436
04:000з239486 0.0 102360
07:000зюз239288 0.0 102370
10:00+3зюз3577100 0.0 1023320
13:00+4зюз3585100 0.0 1023475
16:00+4юз3694100 0.3 1021370
19:00+3зюз3797100 1.6 1020341
22:00+4зюз4897100 2.1 1020401
9 марта, вт
вт901:00+4зюз5993100 3.1 1019399
04:00+4зюз4990100 0.3 1018322
07:00+2зюз499598 0.3 1018251
10:00+5зюз578855 0.0 1018416
13:00+8зюз577355 0.1 10191081
16:00+8зюз467093 0.1 10181087
19:00+5зюз368467 0.2 1019145
22:00+3юз248823 0.0 101965
10 марта, ср
ср1001:00+4юз4108654 0.0 1018287
04:00+3ююз51285100 0.0 1017387
07:00+4ююз61381100 0.0 1016565
10:00+7ююз81471100 0.0 1014892
13:00+7ююз81572100 0.2 10111000
16:00+6ююз91690100 5.0 1009930
19:00+7юз81791100 7.6 1007807
22:00+9юз91793100 2.3 1005854